TAM3755 SBBR-SBGO

Flight info

Callsign TAM3755
Flight time 0h 46m
Altitude 14000
Route SIREM
Aircraft A321/M-SDE2FGHIM1RWXYZ/LB1

Departure

Time 2026-04-20 21:20
Airport Presidente Juscelino Kubitschek International Airport (SBBR)

Arrival

Time 2026-04-20 22:06
Airport Santa Genoveva International Airport (SBGO)
Time Latitude Longitude Altitude Speed Heading
2026-04-20 20:52 -15.86861 -47.92766 3468 ft 0 kts 176°
2026-04-20 21:12 -15.86848 -47.92767 3468 ft 3 kts 176°
2026-04-20 21:12 -15.86828 -47.92769 3468 ft 3 kts 176°
2026-04-20 21:12 -15.86812 -47.92770 3467 ft 3 kts 136°
2026-04-20 21:12 -15.86808 -47.92782 3468 ft 3 kts 86°
2026-04-20 21:13 -15.86809 -47.92799 3467 ft 3 kts 86°
2026-04-20 21:13 -15.86810 -47.92812 3468 ft 0 kts 86°
2026-04-20 21:15 -15.86809 -47.92794 3468 ft 9 kts 86°
2026-04-20 21:15 -15.86804 -47.92721 3468 ft 8 kts 86°
2026-04-20 21:16 -15.86801 -47.92667 3468 ft 7 kts 86°
2026-04-20 21:16 -15.86798 -47.92622 3468 ft 6 kts 86°
2026-04-20 21:16 -15.86795 -47.92580 3468 ft 9 kts 86°
2026-04-20 21:16 -15.86760 -47.92514 3471 ft 10 kts 33°
2026-04-20 21:17 -15.86708 -47.92484 3470 ft 7 kts 28°
2026-04-20 21:17 -15.86649 -47.92452 3472 ft 15 kts 28°
2026-04-20 21:17 -15.86551 -47.92397 3469 ft 16 kts 32°
2026-04-20 21:17 -15.86481 -47.92314 3468 ft 13 kts 56°
2026-04-20 21:18 -15.86455 -47.92274 3468 ft 6 kts 56°
2026-04-20 21:18 -15.86432 -47.92239 3467 ft 6 kts 56°
2026-04-20 21:18 -15.86419 -47.92220 3467 ft 0 kts 56°
2026-04-20 21:19 -15.86419 -47.92219 3467 ft 0 kts 56°
2026-04-20 21:19 -15.86397 -47.92185 3466 ft 12 kts 56°
2026-04-20 21:19 -15.86327 -47.92099 3466 ft 14 kts 48°
2026-04-20 21:20 -15.86311 -47.92033 3467 ft 26 kts 84°
2026-04-20 21:20 -15.86281 -47.91573 3464 ft 98 kts 86°
2026-04-20 21:20 -15.86225 -47.90668 3506 ft 147 kts 89°
2026-04-20 21:20 -15.86157 -47.89611 4136 ft 144 kts 87°
2026-04-20 21:21 -15.86240 -47.88592 4467 ft 148 kts 120°
2026-04-20 21:21 -15.87058 -47.87882 4648 ft 165 kts 158°
2026-04-20 21:21 -15.88246 -47.87657 4785 ft 183 kts 169°
2026-04-20 21:21 -15.89564 -47.87446 4891 ft 205 kts 169°
2026-04-20 21:22 -15.91026 -47.87201 5026 ft 221 kts 168°
2026-04-20 21:22 -15.92615 -47.86931 5132 ft 244 kts 169°
2026-04-20 21:22 -15.94375 -47.86626 5335 ft 267 kts 169°
2026-04-20 21:22 -15.96244 -47.86301 5872 ft 276 kts 169°
2026-04-20 21:23 -15.98149 -47.85969 6557 ft 279 kts 169°
2026-04-20 21:23 -16.00071 -47.85633 7249 ft 281 kts 170°
2026-04-20 21:23 -16.02003 -47.85296 7966 ft 283 kts 170°
2026-04-20 21:23 -16.03942 -47.85141 8654 ft 286 kts 187°
2026-04-20 21:24 -16.05794 -47.85888 8975 ft 290 kts 217°
2026-04-20 21:24 -16.06994 -47.87561 9365 ft 295 kts 249°
2026-04-20 21:24 -16.07339 -47.89671 10115 ft 299 kts 264°
2026-04-20 21:24 -16.07492 -47.91888 10415 ft 318 kts 265°
2026-04-20 21:25 -16.07637 -47.94261 10594 ft 338 kts 265°
2026-04-20 21:25 -16.07828 -47.96733 11090 ft 346 kts 260°
2026-04-20 21:25 -16.08423 -47.99124 11682 ft 348 kts 248°
2026-04-20 21:25 -16.09492 -48.01387 12308 ft 351 kts 240°
2026-04-20 21:26 -16.10678 -48.03617 12950 ft 354 kts 240°
2026-04-20 21:26 -16.11872 -48.05867 13585 ft 358 kts 240°
2026-04-20 21:26 -16.13078 -48.08146 13893 ft 361 kts 240°
2026-04-20 21:26 -16.14283 -48.10430 13967 ft 356 kts 240°
2026-04-20 21:27 -16.15457 -48.12666 13975 ft 350 kts 240°
2026-04-20 21:27 -16.16620 -48.14864 13971 ft 355 kts 240°
2026-04-20 21:27 -16.17806 -48.17096 13966 ft 350 kts 240°
2026-04-20 21:27 -16.18969 -48.19311 13967 ft 348 kts 240°
2026-04-20 21:28 -16.20126 -48.21526 13963 ft 348 kts 240°
2026-04-20 21:28 -16.21281 -48.23737 13964 ft 348 kts 240°
2026-04-20 21:28 -16.22436 -48.25949 13963 ft 348 kts 240°
2026-04-20 21:28 -16.23596 -48.28159 13964 ft 348 kts 239°
2026-04-20 21:29 -16.24973 -48.30211 13966 ft 346 kts 227°
2026-04-20 21:29 -16.26591 -48.32064 13966 ft 346 kts 226°
2026-04-20 21:29 -16.28189 -48.33884 13966 ft 345 kts 226°
2026-04-20 21:29 -16.29809 -48.35730 13966 ft 345 kts 226°
2026-04-20 21:30 -16.31426 -48.37578 13961 ft 345 kts 226°
2026-04-20 21:30 -16.33038 -48.39426 13960 ft 345 kts 226°
2026-04-20 21:30 -16.34650 -48.41277 13959 ft 345 kts 226°
2026-04-20 21:30 -16.36265 -48.43130 13959 ft 345 kts 226°
2026-04-20 21:31 -16.37879 -48.44980 13955 ft 346 kts 226°
2026-04-20 21:31 -16.39498 -48.46836 13954 ft 346 kts 226°
2026-04-20 21:31 -16.41096 -48.48665 13957 ft 346 kts 226°
2026-04-20 21:31 -16.42718 -48.50523 13956 ft 347 kts 226°
2026-04-20 21:32 -16.44341 -48.52382 13957 ft 347 kts 226°
2026-04-20 21:32 -16.45977 -48.54267 13965 ft 350 kts 227°
2026-04-20 21:32 -16.47605 -48.56139 13966 ft 348 kts 226°
2026-04-20 21:32 -16.49236 -48.58008 13970 ft 348 kts 226°
2026-04-20 21:33 -16.50861 -48.59871 13970 ft 348 kts 226°
2026-04-20 21:33 -16.52487 -48.61732 13955 ft 347 kts 226°
2026-04-20 21:33 -16.54043 -48.63623 13694 ft 341 kts 233°
2026-04-20 21:33 -16.55174 -48.65745 13286 ft 340 kts 247°
2026-04-20 21:34 -16.55841 -48.68101 12867 ft 338 kts 256°
2026-04-20 21:34 -16.56385 -48.70477 12449 ft 336 kts 256°
2026-04-20 21:34 -16.56934 -48.72839 12034 ft 334 kts 256°
2026-04-20 21:34 -16.57485 -48.75184 11614 ft 332 kts 255°
2026-04-20 21:35 -16.58035 -48.77515 11199 ft 330 kts 255°
2026-04-20 21:35 -16.58582 -48.79833 10774 ft 328 kts 255°
2026-04-20 21:35 -16.59124 -48.82134 10361 ft 326 kts 255°
2026-04-20 21:35 -16.59651 -48.84378 10149 ft 317 kts 256°
2026-04-20 21:36 -16.60165 -48.86570 10014 ft 306 kts 256°
2026-04-20 21:36 -16.60663 -48.88702 9780 ft 300 kts 255°
2026-04-20 21:36 -16.61155 -48.90810 9417 ft 298 kts 256°
2026-04-20 21:36 -16.61640 -48.92904 9028 ft 296 kts 256°
2026-04-20 21:37 -16.62122 -48.94981 8634 ft 294 kts 255°
2026-04-20 21:37 -16.62598 -48.97025 8243 ft 283 kts 255°
2026-04-20 21:37 -16.63104 -48.98938 7884 ft 266 kts 246°
2026-04-20 21:37 -16.63975 -49.00549 7573 ft 247 kts 232°
2026-04-20 21:38 -16.65138 -49.01781 7225 ft 232 kts 214°
2026-04-20 21:38 -16.66457 -49.02648 6921 ft 225 kts 207°
2026-04-20 21:38 -16.67819 -49.03453 6599 ft 226 kts 208°
2026-04-20 21:38 -16.69171 -49.04263 6285 ft 222 kts 208°
2026-04-20 21:39 -16.70393 -49.05168 5934 ft 212 kts 227°
2026-04-20 21:39 -16.71051 -49.06490 5670 ft 205 kts 255°
2026-04-20 21:39 -16.71028 -49.07961 5376 ft 205 kts 284°
2026-04-20 21:39 -16.70404 -49.09273 5098 ft 201 kts 300°
2026-04-20 21:40 -16.69700 -49.10516 4811 ft 197 kts 300°
2026-04-20 21:40 -16.69019 -49.11724 4535 ft 195 kts 299°
2026-04-20 21:40 -16.68338 -49.12931 4261 ft 191 kts 299°
2026-04-20 21:40 -16.67694 -49.14073 4028 ft 174 kts 299°
2026-04-20 21:41 -16.67100 -49.15133 3791 ft 167 kts 298°
2026-04-20 21:41 -16.66519 -49.16171 3567 ft 164 kts 298°
2026-04-20 21:41 -16.65946 -49.17195 3372 ft 162 kts 299°
2026-04-20 21:41 -16.65385 -49.18195 3144 ft 157 kts 299°
2026-04-20 21:42 -16.64842 -49.19159 2943 ft 152 kts 299°
2026-04-20 21:42 -16.64318 -49.20091 2711 ft 150 kts 299°
2026-04-20 21:42 -16.63803 -49.21023 2518 ft 148 kts 298°
2026-04-20 21:42 -16.63314 -49.21898 2467 ft 130 kts 297°
2026-04-20 21:43 -16.62815 -49.22785 2909 ft 149 kts 299°
2026-04-20 21:43 -16.62295 -49.23714 3479 ft 149 kts 298°
2026-04-20 21:43 -16.61777 -49.24648 3841 ft 150 kts 297°
2026-04-20 21:43 -16.61190 -49.25552 4177 ft 155 kts 320°
2026-04-20 21:44 -16.60130 -49.25810 4308 ft 169 kts 18°
2026-04-20 21:44 -16.59267 -49.25018 4462 ft 178 kts 70°
2026-04-20 21:44 -16.59229 -49.23718 4611 ft 187 kts 100°
2026-04-20 21:44 -16.59477 -49.22315 4714 ft 207 kts 103°
2026-04-20 21:45 -16.59782 -49.20783 4850 ft 224 kts 103°
2026-04-20 21:45 -16.60112 -49.19167 5286 ft 225 kts 103°
2026-04-20 21:45 -16.60438 -49.17596 5958 ft 221 kts 103°
2026-04-20 21:45 -16.60765 -49.16029 6500 ft 222 kts 103°
2026-04-20 21:46 -16.61080 -49.14444 6917 ft 226 kts 102°
2026-04-20 21:46 -16.61375 -49.12834 6993 ft 225 kts 101°
2026-04-20 21:46 -16.61654 -49.11253 7003 ft 225 kts 101°
2026-04-20 21:46 -16.61935 -49.09651 7001 ft 224 kts 101°
2026-04-20 21:47 -16.62217 -49.08053 6999 ft 224 kts 101°
2026-04-20 21:47 -16.62497 -49.06464 6997 ft 222 kts 101°
2026-04-20 21:47 -16.62797 -49.04889 6995 ft 222 kts 107°
2026-04-20 21:47 -16.63576 -49.03525 6989 ft 221 kts 137°
2026-04-20 21:48 -16.64898 -49.02750 6982 ft 214 kts 167°
2026-04-20 21:48 -16.66345 -49.02735 6985 ft 213 kts 193°
2026-04-20 21:48 -16.67690 -49.03383 6995 ft 215 kts 208°
2026-04-20 21:48 -16.68976 -49.04162 6988 ft 212 kts 208°
2026-04-20 21:49 -16.70202 -49.05010 6985 ft 213 kts 223°
2026-04-20 21:49 -16.70957 -49.06269 7000 ft 202 kts 251°
2026-04-20 21:49 -16.71061 -49.07704 6920 ft 199 kts 278°
2026-04-20 21:49 -16.70543 -49.09055 6457 ft 205 kts 301°
2026-04-20 21:50 -16.69801 -49.10352 5922 ft 210 kts 300°
2026-04-20 21:50 -16.69056 -49.11664 5393 ft 209 kts 300°
2026-04-20 21:50 -16.68339 -49.12930 4871 ft 202 kts 300°
2026-04-20 21:50 -16.67638 -49.14171 4359 ft 196 kts 300°
2026-04-20 21:51 -16.66961 -49.15377 3920 ft 188 kts 298°
2026-04-20 21:51 -16.66316 -49.16531 3561 ft 178 kts 299°
2026-04-20 21:51 -16.65716 -49.17603 3307 ft 165 kts 300°
2026-04-20 21:51 -16.65126 -49.18655 3326 ft 172 kts 300°
2026-04-20 21:52 -16.64518 -49.19739 3599 ft 173 kts 298°
2026-04-20 21:52 -16.63910 -49.20821 3982 ft 172 kts 299°
2026-04-20 21:52 -16.63249 -49.21848 4256 ft 181 kts 316°
2026-04-20 21:52 -16.62042 -49.22253 4373 ft 194 kts
2026-04-20 21:53 -16.60843 -49.21580 4501 ft 206 kts 53°
2026-04-20 21:53 -16.60404 -49.20160 4621 ft 216 kts 93°
2026-04-20 21:53 -16.60583 -49.18545 4771 ft 232 kts 100°
2026-04-20 21:53 -16.60862 -49.16850 5183 ft 241 kts 101°
2026-04-20 21:54 -16.61166 -49.15131 5872 ft 242 kts 101°
2026-04-20 21:54 -16.61462 -49.13396 6553 ft 244 kts 101°
2026-04-20 21:54 -16.61748 -49.11656 6892 ft 248 kts 100°
2026-04-20 21:54 -16.62036 -49.09882 6979 ft 248 kts 100°
2026-04-20 21:55 -16.62324 -49.08118 6996 ft 247 kts 100°
2026-04-20 21:55 -16.62610 -49.06358 6992 ft 245 kts 101°
2026-04-20 21:55 -16.63183 -49.04700 6992 ft 245 kts 126°
2026-04-20 21:55 -16.64403 -49.03504 6991 ft 245 kts 153°
2026-04-20 21:56 -16.66030 -49.03033 6987 ft 245 kts 179°
2026-04-20 21:56 -16.67719 -49.03375 6552 ft 256 kts 206°
2026-04-20 21:56 -16.69275 -49.04320 5908 ft 267 kts 210°
2026-04-20 21:56 -16.70616 -49.05590 5531 ft 253 kts 238°
2026-04-20 21:57 -16.71075 -49.07269 5312 ft 237 kts 271°
2026-04-20 21:57 -16.70639 -49.08848 5068 ft 221 kts 299°
2026-04-20 21:57 -16.69883 -49.10190 4803 ft 210 kts 300°
2026-04-20 21:57 -16.69156 -49.11480 4534 ft 200 kts 300°
2026-04-20 21:58 -16.68436 -49.12761 4789 ft 216 kts 300°
2026-04-20 21:58 -16.67641 -49.14181 5187 ft 236 kts 300°
2026-04-20 21:58 -16.66788 -49.15701 5376 ft 250 kts 300°
2026-04-20 21:58 -16.65763 -49.17133 5886 ft 252 kts 319°
2026-04-20 21:59 -16.64244 -49.18018 6452 ft 253 kts 346°
2026-04-20 21:59 -16.62502 -49.18105 6894 ft 253 kts 12°
2026-04-20 21:59 -16.60908 -49.17374 6989 ft 251 kts 39°
2026-04-20 21:59 -16.59824 -49.15982 7011 ft 248 kts 66°
2026-04-20 22:00 -16.59434 -49.14251 7005 ft 246 kts 91°
2026-04-20 22:00 -16.59770 -49.12516 7012 ft 245 kts 110°
2026-04-20 22:00 -16.60313 -49.10856 7009 ft 245 kts 109°
2026-04-20 22:00 -16.60857 -49.09170 7002 ft 244 kts 109°
2026-04-20 22:01 -16.61391 -49.07497 6998 ft 244 kts 108°
2026-04-20 22:01 -16.61925 -49.05808 6995 ft 245 kts 109°
2026-04-20 22:01 -16.62642 -49.04218 6984 ft 244 kts 128°
2026-04-20 22:01 -16.63934 -49.03100 6983 ft 240 kts 154°
2026-04-20 22:02 -16.65488 -49.02706 6917 ft 225 kts 178°
2026-04-20 22:02 -16.67038 -49.03004 6425 ft 234 kts 203°
2026-04-20 22:02 -16.68487 -49.03849 5823 ft 243 kts 209°
2026-04-20 22:02 -16.69936 -49.04770 5234 ft 251 kts 216°
2026-04-20 22:03 -16.70920 -49.06183 4950 ft 234 kts 251°
2026-04-20 22:03 -16.71026 -49.07787 4952 ft 216 kts 280°
2026-04-20 22:03 -16.70440 -49.09192 4955 ft 209 kts 300°
2026-04-20 22:03 -16.69708 -49.10495 4743 ft 206 kts 300°
2026-04-20 22:04 -16.68986 -49.11778 4482 ft 203 kts 300°
2026-04-20 22:04 -16.68299 -49.12999 4246 ft 188 kts 299°
2026-04-20 22:04 -16.67656 -49.14142 4007 ft 179 kts 299°
2026-04-20 22:04 -16.67052 -49.15217 3773 ft 167 kts 299°
2026-04-20 22:05 -16.66481 -49.16233 3553 ft 163 kts 298°
2026-04-20 22:05 -16.65913 -49.17250 3369 ft 161 kts 300°
2026-04-20 22:05 -16.65354 -49.18252 3131 ft 157 kts 300°
2026-04-20 22:05 -16.64815 -49.19224 2893 ft 153 kts 300°
2026-04-20 22:06 -16.64293 -49.20184 2692 ft 151 kts 301°
2026-04-20 22:06 -16.63756 -49.21119 2494 ft 149 kts 303°
2026-04-20 22:06 -16.63270 -49.21976 2452 ft 112 kts 300°
2026-04-20 22:06 -16.63035 -49.22394 2456 ft 31 kts 300°
2026-04-20 22:07 -16.62934 -49.22539 2462 ft 23 kts 313°
2026-04-20 22:07 -16.62828 -49.22621 2462 ft 15 kts 330°
2026-04-20 22:07 -16.62742 -49.22627 2463 ft 12 kts 50°
2026-04-20 22:07 -16.62759 -49.22545 2463 ft 12 kts 117°
2026-04-20 22:08 -16.62799 -49.22474 2459 ft 11 kts 121°
2026-04-20 22:08 -16.62844 -49.22395 2459 ft 16 kts 120°
2026-04-20 22:08 -16.62917 -49.22265 2459 ft 24 kts 120°
2026-04-20 22:08 -16.62988 -49.22098 2452 ft 26 kts 100°
2026-04-20 22:09 -16.62969 -49.21911 2459 ft 24 kts 77°
2026-04-20 22:09 -16.62937 -49.21761 2456 ft 18 kts 76°
2026-04-20 22:09 -16.62919 -49.21654 2465 ft 12 kts 99°
2026-04-20 22:09 -16.62972 -49.21612 2468 ft 6 kts 156°
2026-04-20 22:10 -16.63005 -49.21596 2465 ft 5 kts 153°
2026-04-20 22:10 -16.63038 -49.21565 2467 ft 5 kts 108°
2026-04-20 22:10 -16.63034 -49.21548 2462 ft 3 kts 61°
2026-04-20 22:10 -16.63013 -49.21520 2466 ft 2 kts 56°
2026-04-20 22:11 -16.63007 -49.21512 2462 ft 0 kts 55°